Location: Gwatt
(46.7204°N, 7.6223°E)
Time: 08:20:33
(UTC+00:00)

S-56A Canister/Altair - Pass Details

Date: 22 January 2021
Orbit: 632 x 2501 km, 38.9° (Epoch: 08 March)

Event Time Altitude Azimuth Distance (km) Brightness Sun altitude
Rises 08:14:14 0° 264° (W) 3,417 10.5 9.0°
Reaches altitude 10° 08:17:31 10° 242° (WSW) 2,729 10.2 9.4°
Maximum altitude 08:21:21 16° 206° (SSW) 2,611 10.5 9.9°
Drops below altitude 10° 08:26:00 10° 172° (S) 3,444 11.8 10.5°
Sets 08:31:02 0° 154° (SSE) 4,844 13.1 11.1°
